Date String (YYYY-MM-DD hh:mm:ss) UTC,Instrument flags,absolute air pressure of the measurement (hPa),sample flow rate (lpm),inlet stack bypass flow (lpm),air temperature of the measurement (°C),ambient temperature measured by the external sensor (°C),aerosol sample conditioner tube jacket temperature (°C),OPC LED temperature (°C),internal box temperature (°C),relative humidity of the measurement (%),span deviation,mass concentration of particles derived from Lorenz-Mie calculation of OPC scattering (μg/m³),mass concentration of particles derived from Lorenz-Mie calculation of OPC scattering (μg/m³),mass concentration of particles derived from Lorenz-Mie calculation of OPC scattering (μg/m³)
DateTimeUTC,F1_M11,P_M11,Q1_M11,Q2_M11,T1_M11,T2_M11,T3_M11,T4_M11,T5_M11,U1_M11,ZSPAN_M11,X2_M11,X0_M11,X1_M11
2023-08-10 18:00:00,SystemResetWarning,0829.1,5.00,000.00,029.2,027.4,000.0,037.6,030.9,23.5,-000.5,0006.84,0016.49,0006.03
2023-08-10 18:01:00,SystemResetWarning,0829.1,5.00,000.00,029.2,025.9,000.0,037.4,030.7,21.9,-000.8,0006.82,0016.24,0006.03
2023-08-10 18:02:00,SystemResetWarning,0829.0,5.01,000.00,029.1,025.2,000.0,037.3,030.5,22.0,-000.7,0006.78,0015.54,0006.03
2023-08-10 18:03:00,SystemResetWarning,0829.0,5.01,000.00,029.1,025.5,000.0,037.3,030.5,22.1,-000.2,0006.77,0015.34,0006.04
2023-08-10 18:04:00,SystemResetWarning,0829.0,5.00,000.00,029.0,025.8,000.0,037.4,030.4,21.8,0000.3,0006.74,0015.36,0006.03
2023-08-10 18:05:00,SystemResetWarning,0829.0,5.00,000.00,029.0,026.3,000.0,037.4,030.5,21.3,0000.6,0006.73,0015.22,0006.02
2023-08-10 18:06:00,SystemResetWarning,0829.0,4.99,000.00,029.0,026.7,000.0,037.5,030.7,20.5,0000.7,0006.71,0014.94,0006.01
2023-08-10 18:07:00,SystemResetWarning,0829.0,5.00,000.00,029.1,027.0,000.0,037.5,030.8,19.6,0000.8,0006.66,0014.54,0006.00
2023-08-10 18:08:00,SystemResetWarning,0828.9,5.01,000.00,029.1,027.3,000.0,037.5,030.8,19.0,0001.1,0006.59,0012.99,0005.98
2023-08-10 18:09:00,SystemResetWarning,0829.0,5.00,000.00,029.1,027.6,000.0,037.5,030.9,19.7,0001.2,0006.57,0012.26,0005.97
2023-08-10 18:10:00,SystemResetWarning,0828.9,5.00,000.00,029.2,027.8,000.0,037.6,031.0,18.1,0000.9,0006.57,0012.27,0005.95
2023-08-10 18:11:00,SystemResetWarning,0829.0,5.00,000.00,029.2,027.8,000.0,037.6,031.0,17.6,0001.3,0006.53,0012.39,0005.93
2023-08-10 18:12:00,SystemResetWarning,0828.9,4.98,000.00,029.2,026.2,000.0,037.4,030.7,18.6,0001.8,0006.48,0012.46,0005.90
2023-08-10 18:13:00,SystemResetWarning,0828.9,5.01,000.00,029.1,025.3,000.0,037.3,030.5,18.1,0002.0,0006.45,0012.49,0005.89
2023-08-10 18:14:00,SystemResetWarning,0828.9,5.01,000.00,029.1,025.6,000.0,037.3,030.5,18.4,0002.0,0006.44,0012.91,0005.87
2023-08-10 18:15:00,SystemResetWarning,0828.9,5.00,000.00,029.1,025.9,000.0,037.4,030.5,19.3,0001.2,0006.42,0012.67,0005.86
2023-08-10 18:16:00,SystemResetWarning,0828.9,5.01,000.00,029.0,026.3,000.0,037.4,030.6,19.0,0001.5,0006.37,0012.72,0005.83
2023-08-10 18:17:00,SystemResetWarning,0828.9,5.00,000.00,029.1,026.7,000.0,037.5,030.7,18.9,0001.3,0006.39,0013.16,0005.83
2023-08-10 18:18:00,SystemResetWarning,0828.9,5.00,000.00,029.1,027.1,000.0,037.5,030.8,18.6,0001.4,0006.41,0012.65,0005.81
2023-08-10 18:19:00,SystemResetWarning,0828.9,4.99,000.00,029.1,027.4,000.0,037.5,030.9,18.7,0001.8,0006.39,0012.50,0005.80
2023-08-10 18:20:00,SystemResetWarning,0828.9,5.00,000.00,029.2,027.6,000.0,037.5,030.9,18.4,0001.4,0006.32,0012.37,0005.76
2023-08-10 18:21:00,SystemResetWarning,0828.9,5.01,000.00,029.2,027.7,000.0,037.6,031.0,18.5,0001.3,0006.25,0011.95,0005.74
2023-08-10 18:22:00,SystemResetWarning,0829.0,4.99,000.00,029.2,026.4,000.0,037.4,030.8,18.7,0001.3,0006.23,0011.86,0005.72
2023-08-10 18:23:00,SystemResetWarning,0828.9,5.01,000.00,029.1,025.1,000.0,037.3,030.5,19.0,0000.7,0006.22,0012.36,0005.70
2023-08-10 18:24:00,SystemResetWarning,0828.9,5.01,000.00,029.1,025.3,000.0,037.3,030.4,19.1,0000.2,0006.21,0012.38,0005.68
2023-08-10 18:25:00,SystemResetWarning,0828.9,4.99,000.00,029.0,025.6,000.0,037.3,030.4,18.9,-000.4,0006.19,0012.82,0005.65
2023-08-10 18:26:00,SystemResetWarning,0828.9,5.00,000.00,029.0,026.0,000.0,037.4,030.5,19.7,0000.0,0006.14,0012.56,0005.63
2023-08-10 18:27:00,SystemResetWarning,0828.9,5.01,000.00,029.0,026.5,000.0,037.4,030.6,20.8,0000.0,0006.13,0012.79,0005.62
2023-08-10 18:28:00,SystemResetWarning,0828.9,4.99,000.00,029.0,026.9,000.0,037.4,030.7,19.4,0000.0,0006.09,0012.55,0005.60
2023-08-10 18:29:00,SystemResetWarning,0828.9,5.00,000.00,029.1,027.2,000.0,037.5,030.8,18.2,0000.0,0006.01,0012.26,0005.57
2023-08-10 18:30:00,SystemResetWarning,0828.8,5.01,000.00,029.1,027.5,000.0,037.5,030.8,19.3,0000.0,0006.00,0012.32,0005.56
2023-08-10 18:31:00,SystemResetWarning,0828.8,5.02,000.00,029.1,027.7,000.0,037.5,030.9,19.5,0000.0,0006.00,0012.49,0005.54
2023-08-10 18:32:00,SystemResetWarning,0828.7,5.00,000.00,029.2,027.9,000.0,037.5,031.0,19.7,-000.6,0006.02,0012.53,0005.53
2023-08-10 18:33:00,SystemResetWarning,0828.8,4.98,000.00,029.2,026.8,000.0,037.4,030.8,19.4,-000.9,0006.01,0012.65,0005.51
2023-08-10 18:34:00,SystemResetWarning,0828.8,5.01,000.00,029.1,025.2,000.0,037.3,030.5,20.0,-000.7,0005.97,0012.32,0005.48
2023-08-10 18:35:00,SystemResetWarning,0828.7,5.01,000.00,029.1,025.2,000.0,037.3,030.4,18.0,-000.8,0005.92,0011.80,0005.44
2023-08-10 18:36:00,SystemResetWarning,0828.7,5.00,000.00,029.0,025.5,000.0,037.3,030.4,17.3,0000.0,0005.85,0010.79,0005.40
2023-08-10 18:37:00,SystemResetWarning,0828.7,5.00,000.00,029.0,025.9,000.0,037.3,030.4,17.7,0000.0,0005.80,0010.23,0005.38
2023-08-10 18:38:00,SystemResetWarning,0828.7,5.00,000.00,029.0,026.4,000.0,037.4,030.5,18.6,0000.2,0005.77,0010.06,0005.35
2023-08-10 18:39:00,SystemResetWarning,0828.7,5.00,000.00,029.0,026.8,000.0,037.4,030.6,19.7,0001.4,0005.73,0009.83,0005.31
2023-08-10 18:40:00,SystemResetWarning,0828.7,5.00,000.00,029.0,027.1,000.0,037.4,030.7,19.5,0002.4,0005.72,0010.51,0005.31
2023-08-10 18:41:00,SystemResetWarning,0828.7,5.00,000.00,029.1,027.4,000.0,037.5,030.8,18.5,0002.4,0005.72,0010.45,0005.30
2023-08-10 18:42:00,SystemResetWarning,0828.7,5.01,000.00,029.1,027.6,000.0,037.5,030.9,17.5,0002.1,0005.68,0010.38,0005.27
2023-08-10 18:43:00,SystemResetWarning,0828.7,5.00,000.00,029.2,027.8,000.0,037.5,031.0,18.3,0001.0,0005.68,0010.68,0005.26
2023-08-10 18:44:00,SystemResetWarning,0828.7,4.98,000.00,029.2,027.1,000.0,037.5,030.9,18.0,0000.0,0005.70,0010.76,0005.26
2023-08-10 18:45:00,SystemResetWarning,0828.6,5.00,000.00,029.1,025.4,000.0,037.3,030.5,19.1,0000.0,0005.69,0010.16,0005.26
2023-08-10 18:46:00,SystemResetWarning,0828.6,5.01,000.00,029.1,025.1,000.0,037.3,030.4,19.3,0000.0,0005.72,0010.55,0005.26
2023-08-10 18:47:00,SystemResetWarning,0828.6,5.00,000.00,029.0,025.4,000.0,037.3,030.4,20.2,0001.3,0005.75,0010.73,0005.27
2023-08-10 18:48:00,SystemResetWarning,0828.6,5.00,000.00,029.0,025.8,000.0,037.3,030.4,19.5,0000.9,0005.78,0010.85,0005.27
2023-08-10 18:49:00,SystemResetWarning,0828.6,5.00,000.00,029.0,026.2,000.0,037.4,030.5,19.4,0000.4,0005.81,0011.41,0005.27
2023-08-10 18:50:00,SystemResetWarning,0828.6,5.00,000.00,029.0,026.6,000.0,037.4,030.6,18.4,0000.0,0005.82,0012.16,0005.27
2023-08-10 18:51:00,SystemResetWarning,0828.6,5.00,000.00,029.0,027.0,000.0,037.4,030.7,19.4,0000.0,0005.83,0011.40,0005.26
2023-08-10 18:52:00,SystemResetWarning,0828.6,5.00,000.00,029.1,027.3,000.0,037.4,030.8,20.0,0000.0,0005.83,0012.24,0005.24
2023-08-10 18:53:00,SystemResetWarning,0828.6,4.99,000.00,029.1,027.6,000.0,037.5,030.9,18.4,0000.0,0005.79,0012.48,0005.22
2023-08-10 18:54:00,SystemResetWarning,0828.6,5.00,000.00,029.1,027.8,000.0,037.5,030.9,17.5,0000.0,0005.79,0012.15,0005.21
2023-08-10 18:55:00,SystemResetWarning,0828.7,4.99,000.00,029.2,027.3,000.0,037.5,030.9,18.1,0000.0,0005.75,0012.07,0005.21
2023-08-10 18:56:00,SystemResetWarning,0828.7,5.00,000.00,029.1,025.5,000.0,037.3,030.6,18.5,0000.0,0005.72,0012.04,0005.19
2023-08-10 18:57:00,SystemResetWarning,0828.7,5.01,000.00,029.1,024.9,000.0,037.2,030.4,18.9,0000.0,0005.70,0012.25,0005.18
2023-08-10 18:58:00,SystemResetWarning,0828.7,5.01,000.00,029.0,025.2,000.0,037.3,030.3,19.1,0000.0,0005.64,0012.00,0005.18
2023-08-10 18:59:00,SystemResetWarning,0828.7,5.00,000.00,028.9,025.6,000.0,037.3,030.3,19.2,0000.0,0005.62,0011.97,0005.18
